Погода в Бриндизи

Италия     40°37′52″N   17°56′12″E
темп.,
°C
ветер,
м/с
пор.,
м/с
влажн.,
%
обл.,
%
осадки,
мм/ч
давл.,
гПа
погр.,
м
26 февраля, пт
пт2601:00+14сз56817 0.0 1029218
04:00+14ссз56810 0.0 1028239
07:00+14сз66830 0.0 1027276
10:00+14сз67820 0.0 1028285
13:00+14ссз56810 0.0 1027266
16:00+14ссз45790 0.0 1025252
19:00+14сз34790 0.0 1024191
22:00+14сз45770 0.0 1024198
27 февраля, сб
сб2701:00+14сз46780 0.0 1024270
04:00+14сз56800 0.0 1022323
07:00+14ссз56810 0.0 1021402
10:00+14сз78800 0.0 1022457
13:00+14сз89780 0.0 1020540
16:00+14сз810800 0.0 1019541
19:00+14ссз912830 0.0 1020478
22:00+14сз1113820 0.0 1020458
28 февраля, вс
вс2801:00+15ссв811720 0.0 1021397
04:00+14с78670 0.0 1020863
07:00+13ссв1211603 0.0 1021725
10:00+13ссв1211580 0.0 1022855
13:00+13с88580 0.0 1023916
16:00+13с89590 0.0 10231103
19:00+13ссз89610 0.0 1024707
22:00+13с78600 0.0 10261041
1 марта, пн
пн101:00+13ссв1010580 0.0 1027911
04:00+12ссв99560 0.0 1027708
07:00+12ссв66600 0.0 1027820
10:00+12ссв66610 0.0 1028742
13:00+12с67620 0.0 1028969
16:00+12ссз88670 0.0 10281022
19:00+12ссз99640 0.0 1029764
22:00+13с89600 0.0 1030896
2 марта, вт
вт201:00+13ссв1011570 0.0 1031986
04:00+12св99650 0.0 1031714
07:00+12св89630 0.0 1032661
10:00+12ссв78600 0.0 1034792
13:00+12ссв66580 0.0 1034886
16:00+12с55670 0.0 1033800
19:00+12ссз56650 0.0 1033695
22:00+13с67640 0.0 1034638